Powrót do katalogu

COSMOS 1275 DEB

AktywnyPO
NORAD 12748·DEBRIS·🇷🇺 Russia

Wystrzelony Jun 4, 1981 z Plesetsk Cosmodrome

Loading…

Następne Przeloty (najbliższe 24 godziny)

TLE

ŚwieżeSource: Space-Track

Epoka: Sep 14, 2026, 21:48 UTC

1 12748U 81053CR  26257.90874521  .00000174  00000-0  16451-3 0  9999
2 12748  82.9870 308.8452 0045337  64.6720 116.5915 13.74993972258709

Śledź COSMOS 1275 DEB w czasie rzeczywistym z AllMySat

Download on the App Store